Estación Meteorológica de la Universidad de Murcia
Estación Meteorológica de la Universidad de Murcia
Universidad de Murcia
 

Velocidad y dirección del vientoVelocidad y dirección del viento

 

Velocidad: 33,84 km/h a las 16:16:00 del día 24/07/2021
Dirección del viento: 21,3 º N Rosa de los vientos a las 16:16:00 del día 24/07/2021

Nota:
N (entre 337,6º y 22,5º), NE (entre 22,6º y 67,5º), E (entre 67,6º y 112,5º), SE (entre 112,6º y 157,5º), S (entre 157,6º y 202,5º), SW (entre 202,6º y 247,5º), W (entre 247,5º y 292,5º) y NW (entre 292,6º y 337,5º)

||Velocidad últimos meses|| ----||Dirección del viento||


Velocidad

  • 1 - 33,84 km/h del día 24/07/2021
  • 2 - 30,24 km/h del día 23/07/2021
  • 3 - 36 km/h del día 22/07/2021
  • 4 - 34,56 km/h del día 21/07/2021
  • 5 - 26,28 km/h del día 20/07/2021
  • 6 - 30,6 km/h del día 19/07/2021
  • 7 - 26,28 km/h del día 18/07/2021
  • 8 - 34,2 km/h del día 17/07/2021
  • 9 - 36,36 km/h del día 16/07/2021
  • 10 - 34,92 km/h del día 15/07/2021
  • 11 - 32,4 km/h del día 14/07/2021
  • 12 - 36,72 km/h del día 13/07/2021
  • 13 - 42,12 km/h del día 12/07/2021
  • 14 - 29,16 km/h del día 11/07/2021
  • 15 - 34,2 km/h del día 10/07/2021
  • 16 - 35,64 km/h del día 09/07/2021
  • 17 - 33,12 km/h del día 08/07/2021
  • 18 - 34,2 km/h del día 07/07/2021
  • 19 - 32,04 km/h del día 06/07/2021
  • 20 - 30,96 km/h del día 05/07/2021
  • 21 - 32,4 km/h del día 04/07/2021
  • 22 - 27,72 km/h del día 03/07/2021
  • 23 - 28,08 km/h del día 02/07/2021
  • 24 - 32,76 km/h del día 01/07/2021
  • 25 - 34,92 km/h del día 30/06/2021
  • 26 - 34,56 km/h del día 29/06/2021
  • 27 - 32,4 km/h del día 28/06/2021
  • 28 - 29,52 km/h del día 27/06/2021
  • 29 - 30,6 km/h del día 26/06/2021
  • 30 - 32,76 km/h del día 25/06/2021
  • 31 - 34,2 km/h del día 24/06/2021
  • 32 - 33,12 km/h del día 23/06/2021
  • 33 - 36,72 km/h del día 22/06/2021
  • 34 - 27,72 km/h del día 21/06/2021
  • 35 - 27 km/h del día 20/06/2021
  • 36 - 28,08 km/h del día 19/06/2021
  • 37 - 31,68 km/h del día 18/06/2021
  • 38 - 45,72 km/h del día 17/06/2021
  • 39 - 32,4 km/h del día 16/06/2021
  • 40 - 37,08 km/h del día 15/06/2021
  • 41 - 32,4 km/h del día 14/06/2021
  • 42 - 35,28 km/h del día 13/06/2021
  • 43 - 42,48 km/h del día 12/06/2021
  • 44 - 36 km/h del día 11/06/2021
  • 45 - 34,2 km/h del día 10/06/2021
  • 46 - 30,6 km/h del día 09/06/2021
  • 47 - 29,16 km/h del día 08/06/2021
  • 48 - 25,2 km/h del día 07/06/2021
  • 49 - 39,24 km/h del día 06/06/2021
  • 50 - 45,72 km/h del día 05/06/2021
  • 51 - 23,76 km/h del día 04/06/2021
  • 52 - 30,6 km/h del día 03/06/2021
  • 53 - 36,36 km/h del día 02/06/2021
  • 54 - 28,08 km/h del día 01/06/2021
  • 55 - 20,16 km/h del día 31/05/2021
  • 56 - 30,96 km/h del día 30/05/2021
  • 57 - 27 km/h del día 29/05/2021
  • 58 - 27 km/h del día 28/05/2021
  • 59 - 29,16 km/h del día 27/05/2021

||Volver al inicio de la página||


Dirección del viento

  • 1 - 1140.34 º 1140,34 del día 31/05/2021
  • 2 - 888.62 º N del día 30/06/2021
  • 3 - 1178.99 º 1178,99 del día 30/05/2021
  • 4 - 1334.82 º 1334,82 del día 29/06/2021
  • 5 - 1563.03 º 1563,03 del día 29/05/2021
  • 6 - 1695.06 º 1695,06 del día 28/06/2021
  • 7 - 1375.27 º 1375,27 del día 28/05/2021
  • 8 - 1654.46 º 1654,46 del día 27/06/2021
  • 9 - 1629.74 º 1629,74 del día 27/05/2021
  • 10 - 872.32 º N del día 26/07/2021
  • 11 - 1619.33 º 1619,33 del día 26/06/2021
  • 12 - 953.31 º N del día 26/05/2021
  • 13 - 1395.17 º 1395,17 del día 25/07/2021
  • 14 - 1520.14 º 1520,14 del día 25/06/2021
  • 15 - 1481.38 º 1481,38 del día 24/07/2021
  • 16 - 1264.55 º 1264,55 del día 24/06/2021
  • 17 - 1484.28 º 1484,28 del día 23/07/2021
  • 18 - 1367.76 º 1367,76 del día 23/06/2021
  • 19 - 1538.72 º 1538,72 del día 22/07/2021
  • 20 - 2026.02 º 2026,02 del día 22/06/2021
  • 21 - 1248.54 º 1248,54 del día 21/07/2021
  • 22 - 1960.58 º 1960,58 del día 21/06/2021
  • 23 - 1132.71 º 1132,71 del día 20/07/2021
  • 24 - 2012.1 º 2012,1 del día 20/06/2021
  • 25 - 1163.75 º 1163,75 del día 19/07/2021
  • 26 - 1111.48 º 1111,48 del día 19/06/2021
  • 27 - 1136.02 º 1136,02 del día 18/07/2021
  • 28 - 1525.75 º 1525,75 del día 18/06/2021
  • 29 - 1105.58 º 1105,58 del día 17/07/2021
  • 30 - 1753.19 º 1753,19 del día 17/06/2021
  • 31 - 1354.73 º 1354,73 del día 16/07/2021
  • 32 - 1633.47 º 1633,47 del día 16/06/2021
  • 33 - 1466.84 º 1466,84 del día 15/07/2021
  • 34 - 1434.27 º 1434,27 del día 15/06/2021
  • 35 - 1356.77 º 1356,77 del día 14/07/2021
  • 36 - 1658.68 º 1658,68 del día 14/06/2021
  • 37 - 1381.94 º 1381,94 del día 13/07/2021
  • 38 - 1500.93 º 1500,93 del día 13/06/2021
  • 39 - 1930.07 º 1930,07 del día 12/07/2021
  • 40 - 1649.51 º 1649,51 del día 12/06/2021
  • 41 - 1171.27 º 1171,27 del día 11/07/2021
  • 42 - 1526.87 º 1526,87 del día 11/06/2021
  • 43 - 1526.61 º 1526,61 del día 10/07/2021
  • 44 - 1090.83 º 1090,83 del día 10/06/2021
  • 45 - 905.02 º N del día 09/07/2021
  • 46 - 1336.86 º 1336,86 del día 09/06/2021
  • 47 - 956.89 º N del día 08/07/2021
  • 48 - 1306.61 º 1306,61 del día 08/06/2021
  • 49 - 1506.65 º 1506,65 del día 07/07/2021
  • 50 - 1141.87 º 1141,87 del día 07/06/2021
  • 51 - 1829.61 º 1829,61 del día 06/07/2021
  • 52 - 1730.95 º 1730,95 del día 06/06/2021
  • 53 - 1140.51 º 1140,51 del día 05/07/2021
  • 54 - 1440.18 º 1440,18 del día 05/06/2021
  • 55 - 1807.72 º 1807,72 del día 04/07/2021
  • 56 - 1663.6 º 1663,6 del día 04/06/2021
  • 57 - 1608.3 º 1608,3 del día 03/07/2021
  • 58 - 1192.59 º 1192,59 del día 03/06/2021
  • 59 - 1226.57 º 1226,57 del día 02/07/2021
  • 60 - 1544.85 º 1544,85 del día 02/06/2021
  • 61 - 1212.97 º 1212,97 del día 01/07/2021
  • 62 - 1512.72 º 1512,72 del día 01/06/2021

|| Temperatura Ambiente|| Humedad relativa|| Precipitación|| Radiación Solar Global y PAR|| Temperatura y humedad del suelo|| Presión atmosférica|| Más información|| Volver a la página principal|| Volver al inicio de la página||


Estación Meteorológica de la Universidad de Murcia
http://estacion.um.es/
Informacion actualizada a: 26/07/2021 a las 02:42:00